User: anonymous   Login
Location: Ostrava
(49.8330°N, 18.2830°E)
Time: 14:54:05
(UTC+01:00)
Language:

Iridium 7 - Orbit

View from above orbital plane
View from above orbital plane
View from above satellite
View from above satellite

Ground track
Ground track

The orbit data is extracted from the following two-line orbital elements,

1 24793U 97020B   15058.26760138  .00000401  00000-0  13598-3 0  9999
2 24793 086.3981 310.4347 0002051 083.0722 056.5360 14.34213281932664
Epoch (UTC): 27 February 2015 06:25:20
Eccentricity: 0.0002051
inclination: 86.3981°
perigee height: 776 km
apogee height: 779 km
right ascension of ascending node: 310.4347°
argument of perigee: 83.0722°
revolutions per day: 14.34213281
mean anomaly at epoch: 56.5360°
orbit number at epoch: 93266

The dashed part of the orbit path shows where the satellite is in the earth's shadow,  

DLR